Orbital Elements at Epoch 2459000.5 (2020-May-31.0) TDB
Reference: JPL 33 (heliocentric ecliptic J2000)
Element | Value | Uncertainty (1-sigma) | Units |
e | .0882043453523545 | 3.4436e-08 | |
a | 2.750113407828846 | 1.1504e-08 | au |
q | 2.50754145504657 | 9.5285e-08 | au |
i | 4.875093188655387 | 4.0307e-06 | deg |
node | 342.8404925501756 | 3.7336e-05 | deg |
peri | 35.17288943075624 | 4.2812e-05 | deg |
M | 110.6076959915488 | 2.0443e-05 | deg |
tp | 2458488.691873779535 (2019-Jan-05.19187378) | 9.4702e-05 | TDB |
period | 1665.805654729899 4.56 | 1.0452e-05 2.862e-08 | d yr |
n | .2161116448235205 | 1.356e-09 | deg/d |
Q | 2.992685360611122 | 1.2519e-08 | au |
|
| | Orbit Determination Parameters
Additional Information
|